QPF
0.01 0.01 0.00 0.00 0.00 0.00 0.01 0.01 0.02 0.02 0.02 0.01 0.01 0.02 0.01 0.01 0.00 0.00 0.00 0.01 0.01 0.00 0.00 0.00 0.00 0.00 0.00 0.01 0.01 0.01 0.02 0.02 0.02 0.01 0.01 0.01 0.01 0.01 0.02 0.02 0.02 0.02 0.02 0.02
0.00 0.00 0.00 0.00 0.00 0.00 0.00 0.00 0.01 0.01 0.01 0.01 0.01 0.02 0.01 0.01 0.01 0.01 0.01 0.01 0.00 0.00 0.00 0.00 0.00 0.00 0.00 0.00 0.00 0.00 0.00 0.01 0.01 0.01 0.01 0.01 0.01 0.01 0.01 0.01 0.02 0.02 0.01 0.01
0.01 0.01 0.00 0.00 0.00 0.00 0.00 0.00 0.00 0.01 0.01 0.00 0.01 0.01 0.01 0.01 0.01 0.00 0.00 0.01 0.00 0.00 0.00 0.00 0.00 0.00 0.00 0.00 0.00 0.00 0.00 0.00 0.00 0.01 0.01 0.01 0.01 0.01 0.01 0.01 0.01 0.01 0.01 0.01
0.01 0.01 0.00 0.00 0.00 0.00 0.00 0.00 0.00 0.00 0.00 0.00 0.00 0.00 0.00 0.01 0.01 0.00 0.00 0.01 0.00 0.00 0.00 0.00 0.00 0.00 0.00 0.00 0.00 0.00 0.00 0.00 0.00 0.01 0.01 0.01 0.01 0.01 0.01 0.01 0.01 0.01 0.01 0.02
0.01 0.01 0.00 0.00 0.00 0.00 0.00 0.00 0.00 0.00 0.00 0.00 0.00 0.00 0.00 0.00 0.00 0.00 0.00 0.00 0.00 0.00 0.00 0.00 0.00 0.00 0.00 0.00 0.00 0.00 0.00 0.01 0.01 0.01 0.01 0.01 0.01 0.01 0.01 0.01 0.01 0.01 0.01 0.02
0.01 0.01 0.01 0.00 0.00 0.00 0.00 0.00 0.00 0.00 0.00 0.00 0.00 0.00 0.00 0.00 0.00 0.00 0.00 0.00 0.00 0.00 0.00 0.00 0.00 0.00 0.00 0.00 0.00 0.00 0.01 0.01 0.01 0.01 0.01 0.01 0.01 0.01 0.01 0.01 0.01 0.01 0.02 0.02
0.01 0.01 0.01 0.00 0.00 0.00 0.00 0.00 0.00 0.00 0.00 0.00 0.00 0.00 0.00 0.00 0.00 0.00 0.00 0.00 0.00 0.00 0.00 0.00 0.01 0.01 0.01 0.01 0.01 0.01 0.01 0.01 0.01 0.01 0.01 0.01 0.02 0.02 0.01 0.01 0.01 0.02 0.02 0.02
0.01 0.01 0.01 0.00 0.00 0.00 0.00 0.00 0.00 0.00 0.00 0.00 0.00 0.00 0.00 0.00 0.00 0.00 0.00 0.00 0.00 0.00 0.00 0.00 0.01 0.01 0.01 0.01 0.01 0.01 0.01 0.01 0.01 0.01 0.01 0.01 0.02 0.03 0.02 0.02 0.02 0.02 0.02 0.03
0.01 0.01 0.01 0.00 0.00 0.00 0.00 0.00 0.00 0.00 0.00 0.00 0.00 0.00 0.00 0.00 0.00 0.00 0.00 0.00 0.00 0.00 0.00 0.00 0.00 0.01 0.01 0.01 0.01 0.01 0.01 0.01 0.01 0.01 0.02 0.02 0.02 0.03 0.03 0.02 0.02 0.02 0.02 0.03
0.01 0.01 0.01 0.00 0.00 0.00 0.00 0.00 0.00 0.00 0.00 0.00 0.00 0.00 0.00 0.00 0.00 0.00 0.00 0.00 0.00 0.00 0.00 0.00 0.00 0.01 0.01 0.01 0.01 0.02 0.02 0.01 0.01 0.01 0.02 0.02 0.02 0.03 0.03 0.03 0.03 0.03 0.03 0.02
0.01 0.01 0.01 0.00 0.00 0.00 0.00 0.00 0.00 0.00 0.00 0.00 0.00 0.00 0.00 0.00 0.00 0.00 0.00 0.00 0.00 0.00 0.00 0.00 0.00 0.00 0.01 0.02 0.02 0.02 0.02 0.02 0.01 0.01 0.02 0.02 0.02 0.03 0.03 0.04 0.04 0.04 0.03 0.03
0.00 0.00 0.01 0.00 0.00 0.00 0.00 0.00 0.00 0.00 0.00 0.00 0.00 0.00 0.00 0.00 0.00 0.01 0.01 0.01 0.01 0.01 0.00 0.00 0.00 0.00 0.01 0.02 0.04 0.03 0.03 0.02 0.01 0.01 0.01 0.02 0.02 0.02 0.03 0.03 0.04 0.04 0.03 0.02
0.00 0.00 0.00 0.00 0.00 0.00 0.00 0.00 0.00 0.00 0.00 0.00 0.00 0.00 0.00 0.00 0.00 0.00 0.00 0.00 0.01 0.01 0.02 0.01 0.01 0.01 0.01 0.01 0.03 0.04 0.04 0.03 0.02 0.01 0.01 0.01 0.02 0.02 0.02 0.02 0.03 0.02 0.02 0.02
0.00 0.00 0.00 0.00 0.00 0.00 0.00 0.00 0.00 0.00 0.01 0.01 0.01 0.00 0.00 0.00 0.01 0.00 0.00 0.00 0.00 0.01 0.02 0.02 0.02 0.02 0.02 0.01 0.02 0.03 0.04 0.05 0.04 0.02 0.01 0.01 0.02 0.02 0.01 0.01 0.01 0.01 0.02 0.01
0.00 0.00 0.00 0.00 0.00 0.00 0.00 0.00 0.00 0.00 0.00 0.01 0.02 0.02 0.01 0.01 0.01 0.01 0.01 0.01 0.00 0.01 0.02 0.02 0.03 0.03 0.04 0.03 0.02 0.02 0.03 0.05 0.05 0.03 0.01 0.01 0.01 0.01 0.01 0.01 0.01 0.01 0.01 0.02
0.00 0.00 0.00 0.00 0.01 0.00 0.00 0.00 0.00 0.00 0.00 0.00 0.01 0.02 0.02 0.01 0.01 0.00 0.00 0.00 0.00 0.01 0.02 0.03 0.03 0.04 0.04 0.04 0.03 0.02 0.02 0.03 0.04 0.03 0.02 0.02 0.01 0.01 0.01 0.01 0.01 0.02 0.02 0.02
0.00 0.00 0.00 0.00 0.01 0.01 0.00 0.00 0.00 0.00 0.00 0.00 0.00 0.01 0.01 0.02 0.01 0.00 0.00 0.00 0.00 0.01 0.03 0.05 0.03 0.03 0.04 0.04 0.04 0.04 0.02 0.02 0.03 0.03 0.03 0.02 0.02 0.01 0.01 0.01 0.01 0.01 0.02 0.02
0.01 0.00 0.00 0.00 0.01 0.01 0.01 0.00 0.00 0.00 0.00 0.00 0.00 0.00 0.00 0.01 0.01 0.00 0.00 0.00 0.01 0.02 0.04 0.05 0.02 0.02 0.02 0.03 0.05 0.05 0.03 0.03 0.02 0.03 0.02 0.02 0.02 0.01 0.01 0.01 0.01 0.02 0.02 0.02
0.01 0.01 0.01 0.01 0.01 0.01 0.01 0.00 0.00 0.00 0.00 0.00 0.00 0.00 0.00 0.00 0.00 0.00 0.00 0.00 0.01 0.02 0.04 0.04 0.03 0.02 0.02 0.03 0.05 0.06 0.05 0.03 0.03 0.02 0.02 0.03 0.02 0.02 0.02 0.02 0.02 0.02 0.03 0.02
0.00 0.01 0.01 0.01 0.01 0.01 0.01 0.01 0.00 0.00 0.00 0.00 0.00 0.00 0.00 0.00 0.00 0.00 0.00 0.00 0.01 0.02 0.03 0.04 0.03 0.02 0.03 0.04 0.05 0.06 0.06 0.05 0.04 0.04 0.04 0.03 0.03 0.03 0.03 0.03 0.03 0.03 0.03 0.03
0.00 0.00 0.01 0.02 0.02 0.02 0.01 0.01 0.01 0.00 0.00 0.00 0.00 0.00 0.00 0.00 0.00 0.00 0.00 0.01 0.01 0.02 0.03 0.03 0.03 0.02 0.02 0.03 0.04 0.04 0.04 0.04 0.05 0.05 0.05 0.04 0.04 0.04 0.04 0.04 0.03 0.03 0.03 0.03
0.00 0.00 0.00 0.01 0.02 0.03 0.03 0.02 0.01 0.01 0.00 0.00 0.00 0.00 0.00 0.00 0.00 0.00 0.01 0.01 0.02 0.02 0.03 0.02 0.02 0.02 0.02 0.02 0.02 0.03 0.04 0.05 0.04 0.04 0.04 0.04 0.04 0.04 0.04 0.04 0.04 0.04 0.03 0.03
0.00 0.00 0.01 0.01 0.01 0.02 0.02 0.01 0.01 0.00 0.00 0.00 0.00 0.00 0.00 0.00 0.00 0.00 0.00 0.01 0.01 0.02 0.02 0.02 0.01 0.02 0.02 0.02 0.02 0.02 0.03 0.03 0.03 0.03 0.03 0.03 0.03 0.04 0.04 0.04 0.04 0.04 0.04 0.04
0.00 0.00 0.01 0.01 0.02 0.02 0.01 0.01 0.01 0.00 0.00 0.00 0.00 0.00 0.00 0.00 0.00 0.00 0.01 0.01 0.01 0.01 0.01 0.01 0.02 0.02 0.01 0.01 0.02 0.02 0.02 0.02 0.02 0.01 0.01 0.01 0.01 0.02 0.02 0.02 0.02 0.02 0.02 0.03
0.00 0.00 0.00 0.01 0.01 0.01 0.01 0.01 0.01 0.01 0.01 0.01 0.01 0.01 0.00 0.00 0.00 0.00 0.01 0.01 0.01 0.01 0.01 0.02 0.02 0.01 0.01 0.01 0.01 0.01 0.01 0.01 0.01 0.01 0.01 0.01 0.00 0.01 0.01 0.01 0.01 0.01 0.01 0.01
0.00 0.00 0.00 0.01 0.01 0.01 0.01 0.02 0.02 0.01 0.01 0.01 0.01 0.01 0.01 0.01 0.01 0.01 0.01 0.01 0.01 0.01 0.01 0.01 0.01 0.00 0.00 0.00 0.00 0.00 0.00 0.00 0.01 0.01 0.00 0.00 0.00 0.00 0.00 0.00 0.00 0.01 0.01 0.01
0.00 0.00 0.00 0.01 0.01 0.01 0.02 0.03 0.03 0.02 0.02 0.02 0.02 0.02 0.02 0.02 0.02 0.03 0.02 0.02 0.01 0.01 0.01 0.01 0.00 0.00 0.00 0.00 0.00 0.00 0.00 0.00 0.00 0.00 0.00 0.01 0.01 0.00 0.00 0.00 0.00 0.00 0.01 0.01
MSLP
1021.29 1021.39 1021.45 1021.49 1021.52 1021.53 1021.54 1021.56 1021.61 1021.69 1021.81 1021.99 1022.21 1022.48 1022.77 1023.06 1023.32 1023.53 1023.65 1023.66 1023.54 1023.31 1022.96 1022.52 1022.01 1021.46 1020.90 1020.35 1019.82 1019.32 1018.83 1018.35 1017.85 1017.31 1016.74 1016.11 1015.43 1014.72 1013.99 1013.25 1012.54 1011.87 1011.26 1010.71
1021.39 1021.48 1021.53 1021.56 1021.56 1021.56 1021.56 1021.57 1021.61 1021.68 1021.80 1021.96 1022.17 1022.41 1022.67 1022.92 1023.14 1023.30 1023.37 1023.34 1023.20 1022.94 1022.58 1022.13 1021.64 1021.10 1020.57 1020.04 1019.54 1019.06 1018.59 1018.11 1017.62 1017.08 1016.49 1015.85 1015.15 1014.41 1013.64 1012.87 1012.13 1011.44 1010.81 1010.26
1021.41 1021.48 1021.51 1021.52 1021.52 1021.51 1021.52 1021.54 1021.59 1021.67 1021.80 1021.96 1022.15 1022.37 1022.59 1022.79 1022.96 1023.06 1023.09 1023.01 1022.84 1022.56 1022.20 1021.76 1021.28 1020.77 1020.26 1019.75 1019.27 1018.80 1018.33 1017.85 1017.34 1016.78 1016.16 1015.48 1014.75 1013.97 1013.16 1012.36 1011.59 1010.88 1010.24 1009.70
1021.37 1021.41 1021.43 1021.43 1021.42 1021.42 1021.45 1021.49 1021.56 1021.67 1021.80 1021.97 1022.15 1022.34 1022.52 1022.68 1022.79 1022.84 1022.81 1022.70 1022.50 1022.21 1021.85 1021.43 1020.96 1020.47 1019.98 1019.49 1019.01 1018.53 1018.05 1017.55 1017.01 1016.42 1015.77 1015.05 1014.28 1013.46 1012.63 1011.80 1011.02 1010.29 1009.66 1009.14
1021.28 1021.31 1021.32 1021.32 1021.32 1021.34 1021.38 1021.45 1021.56 1021.68 1021.84 1022.00 1022.17 1022.33 1022.47 1022.57 1022.63 1022.63 1022.56 1022.42 1022.20 1021.91 1021.55 1021.14 1020.69 1020.21 1019.72 1019.24 1018.75 1018.25 1017.75 1017.22 1016.65 1016.03 1015.35 1014.61 1013.82 1012.99 1012.15 1011.32 1010.53 1009.82 1009.20 1008.69
1021.15 1021.19 1021.20 1021.22 1021.24 1021.28 1021.36 1021.46 1021.59 1021.74 1021.90 1022.06 1022.21 1022.34 1022.43 1022.49 1022.50 1022.46 1022.35 1022.18 1021.95 1021.65 1021.30 1020.89 1020.45 1019.98 1019.48 1018.98 1018.46 1017.94 1017.41 1016.85 1016.26 1015.62 1014.94 1014.21 1013.44 1012.63 1011.82 1011.01 1010.25 1009.56 1008.95 1008.46
1021.00 1021.06 1021.11 1021.16 1021.21 1021.30 1021.41 1021.54 1021.69 1021.85 1022.01 1022.16 1022.28 1022.37 1022.43 1022.44 1022.40 1022.32 1022.19 1022.00 1021.76 1021.45 1021.10 1020.69 1020.24 1019.75 1019.24 1018.70 1018.15 1017.59 1017.03 1016.45 1015.86 1015.24 1014.59 1013.90 1013.18 1012.44 1011.69 1010.95 1010.23 1009.57 1008.99 1008.50
1020.84 1020.95 1021.05 1021.14 1021.25 1021.38 1021.53 1021.69 1021.86 1022.03 1022.18 1022.30 1022.39 1022.44 1022.45 1022.42 1022.35 1022.24 1022.08 1021.88 1021.62 1021.31 1020.95 1020.52 1020.05 1019.53 1018.98 1018.40 1017.81 1017.21 1016.62 1016.04 1015.46 1014.88 1014.30 1013.69 1013.07 1012.44 1011.78 1011.13 1010.49 1009.88 1009.32 1008.83
1020.70 1020.86 1021.02 1021.17 1021.34 1021.52 1021.71 1021.90 1022.08 1022.25 1022.38 1022.48 1022.54 1022.55 1022.52 1022.45 1022.35 1022.21 1022.03 1021.81 1021.54 1021.22 1020.84 1020.39 1019.88 1019.32 1018.71 1018.08 1017.45 1016.82 1016.21 1015.64 1015.09 1014.58 1014.08 1013.59 1013.10 1012.59 1012.06 1011.52 1010.97 1010.42 1009.89 1009.40
1020.56 1020.79 1021.01 1021.23 1021.45 1021.69 1021.92 1022.13 1022.33 1022.49 1022.61 1022.69 1022.71 1022.69 1022.62 1022.52 1022.39 1022.23 1022.04 1021.81 1021.52 1021.18 1020.77 1020.29 1019.74 1019.12 1018.46 1017.78 1017.09 1016.43 1015.82 1015.26 1014.76 1014.32 1013.93 1013.57 1013.21 1012.85 1012.46 1012.04 1011.59 1011.11 1010.61 1010.11
1020.45 1020.72 1021.01 1021.28 1021.57 1021.85 1022.12 1022.36 1022.56 1022.72 1022.83 1022.88 1022.88 1022.83 1022.74 1022.62 1022.47 1022.30 1022.09 1021.85 1021.56 1021.20 1020.76 1020.24 1019.64 1018.97 1018.25 1017.51 1016.78 1016.09 1015.47 1014.93 1014.48 1014.12 1013.83 1013.59 1013.37 1013.15 1012.89 1012.59 1012.24 1011.83 1011.37 1010.88
1020.34 1020.66 1020.99 1021.32 1021.65 1021.97 1022.26 1022.53 1022.74 1022.90 1022.99 1023.03 1023.01 1022.94 1022.84 1022.71 1022.55 1022.38 1022.18 1021.93 1021.63 1021.25 1020.79 1020.24 1019.59 1018.88 1018.11 1017.32 1016.55 1015.83 1015.20 1014.67 1014.26 1013.96 1013.76 1013.62 1013.52 1013.41 1013.28 1013.09 1012.83 1012.49 1012.08 1011.61
1020.25 1020.59 1020.94 1021.31 1021.67 1022.02 1022.34 1022.61 1022.83 1022.99 1023.07 1023.10 1023.07 1022.99 1022.89 1022.76 1022.62 1022.45 1022.26 1022.02 1021.72 1021.33 1020.85 1020.28 1019.60 1018.84 1018.04 1017.21 1016.40 1015.66 1015.02 1014.50 1014.11 1013.85 1013.71 1013.65 1013.63 1013.62 1013.58 1013.48 1013.30 1013.03 1012.68 1012.26
1020.16 1020.51 1020.88 1021.26 1021.64 1022.00 1022.33 1022.61 1022.83 1022.97 1023.06 1023.08 1023.04 1022.97 1022.87 1022.76 1022.63 1022.48 1022.31 1022.08 1021.79 1021.41 1020.93 1020.34 1019.65 1018.87 1018.03 1017.18 1016.36 1015.60 1014.95 1014.43 1014.05 1013.81 1013.70 1013.68 1013.72 1013.77 1013.79 1013.76 1013.65 1013.45 1013.17 1012.81
1020.08 1020.43 1020.80 1021.19 1021.58 1021.94 1022.26 1022.53 1022.74 1022.87 1022.95 1022.96 1022.92 1022.86 1022.78 1022.68 1022.57 1022.45 1022.30 1022.10 1021.83 1021.46 1020.99 1020.40 1019.71 1018.93 1018.09 1017.23 1016.40 1015.64 1014.98 1014.46 1014.09 1013.86 1013.76 1013.76 1013.82 1013.90 1013.97 1013.98 1013.93 1013.80 1013.58 1013.31
1020.03 1020.38 1020.75 1021.14 1021.51 1021.86 1022.17 1022.41 1022.60 1022.71 1022.77 1022.77 1022.73 1022.67 1022.60 1022.52 1022.44 1022.34 1022.22 1022.04 1021.79 1021.45 1021.00 1020.43 1019.76 1019.00 1018.17 1017.33 1016.52 1015.77 1015.12 1014.61 1014.24 1014.02 1013.92 1013.92 1013.99 1014.09 1014.17 1014.22 1014.21 1014.13 1013.98 1013.78
1020.02 1020.38 1020.75 1021.13 1021.48 1021.81 1022.08 1022.29 1022.43 1022.52 1022.54 1022.53 1022.48 1022.42 1022.36 1022.29 1022.23 1022.16 1022.05 1021.90 1021.68 1021.36 1020.94 1020.41 1019.77 1019.04 1018.26 1017.46 1016.69 1015.97 1015.36 1014.87 1014.52 1014.30 1014.21 1014.21 1014.28 1014.38 1014.47 1014.54 1014.56 1014.52 1014.43 1014.29
1020.07 1020.44 1020.82 1021.18 1021.51 1021.79 1022.02 1022.18 1022.28 1022.32 1022.31 1022.27 1022.20 1022.14 1022.07 1022.01 1021.96 1021.90 1021.81 1021.68 1021.48 1021.19 1020.81 1020.32 1019.72 1019.06 1018.34 1017.60 1016.89 1016.23 1015.67 1015.23 1014.91 1014.72 1014.64 1014.65 1014.72 1014.82 1014.92 1015.00 1015.04 1015.03 1014.98 1014.88
1020.19 1020.58 1020.96 1021.30 1021.59 1021.83 1022.00 1022.10 1022.14 1022.13 1022.08 1022.00 1021.91 1021.83 1021.76 1021.69 1021.64 1021.59 1021.51 1021.39 1021.21 1020.95 1020.60 1020.15 1019.62 1019.02 1018.37 1017.72 1017.09 1016.52 1016.04 1015.66 1015.39 1015.24 1015.19 1015.22 1015.30 1015.41 1015.52 1015.60 1015.65 1015.66 1015.63 1015.56
1020.36 1020.76 1021.13 1021.45 1021.70 1021.88 1021.99 1022.03 1022.01 1021.95 1021.85 1021.73 1021.62 1021.52 1021.43 1021.36 1021.30 1021.24 1021.16 1021.05 1020.88 1020.64 1020.33 1019.93 1019.46 1018.93 1018.37 1017.81 1017.28 1016.80 1016.41 1016.11 1015.92 1015.82 1015.82 1015.88 1015.98 1016.10 1016.22 1016.31 1016.36 1016.38 1016.35 1016.29
1020.54 1020.94 1021.29 1021.57 1021.77 1021.90 1021.95 1021.92 1021.85 1021.74 1021.60 1021.45 1021.31 1021.19 1021.09 1021.01 1020.94 1020.87 1020.79 1020.68 1020.52 1020.30 1020.01 1019.66 1019.25 1018.80 1018.33 1017.86 1017.43 1017.05 1016.76 1016.55 1016.43 1016.40 1016.44 1016.54 1016.67 1016.81 1016.94 1017.04 1017.10 1017.12 1017.10 1017.03
1020.68 1021.07 1021.39 1021.62 1021.77 1021.84 1021.83 1021.75 1021.63 1021.48 1021.31 1021.14 1020.99 1020.85 1020.74 1020.65 1020.57 1020.49 1020.41 1020.29 1020.14 1019.93 1019.68 1019.37 1019.01 1018.63 1018.24 1017.87 1017.53 1017.25 1017.04 1016.91 1016.86 1016.89 1016.98 1017.12 1017.28 1017.44 1017.59 1017.70 1017.77 1017.80 1017.78 1017.72
1020.74 1021.10 1021.37 1021.55 1021.64 1021.65 1021.60 1021.48 1021.33 1021.15 1020.97 1020.79 1020.63 1020.48 1020.37 1020.27 1020.19 1020.11 1020.01 1019.90 1019.75 1019.56 1019.32 1019.05 1018.75 1018.43 1018.11 1017.82 1017.56 1017.36 1017.22 1017.16 1017.17 1017.25 1017.38 1017.54 1017.72 1017.90 1018.07 1018.19 1018.28 1018.33 1018.33 1018.29
1020.69 1020.99 1021.21 1021.34 1021.38 1021.35 1021.26 1021.12 1020.95 1020.76 1020.57 1020.39 1020.23 1020.09 1019.98 1019.88 1019.79 1019.70 1019.60 1019.48 1019.34 1019.16 1018.95 1018.72 1018.46 1018.20 1017.94 1017.71 1017.51 1017.37 1017.29 1017.27 1017.32 1017.43 1017.57 1017.76 1017.95 1018.14 1018.32 1018.47 1018.58 1018.65 1018.69 1018.69
1020.52 1020.76 1020.92 1021.00 1021.01 1020.95 1020.83 1020.68 1020.51 1020.32 1020.14 1019.97 1019.82 1019.68 1019.56 1019.46 1019.36 1019.27 1019.16 1019.04 1018.91 1018.74 1018.56 1018.35 1018.13 1017.92 1017.71 1017.53 1017.39 1017.29 1017.24 1017.25 1017.31 1017.42 1017.57 1017.75 1017.95 1018.14 1018.33 1018.50 1018.64 1018.76 1018.84 1018.90
1020.25 1020.44 1020.56 1020.60 1020.57 1020.50 1020.38 1020.23 1020.06 1019.89 1019.72 1019.55 1019.40 1019.26 1019.13 1019.02 1018.91 1018.80 1018.68 1018.56 1018.43 1018.28 1018.11 1017.94 1017.77 1017.59 1017.43 1017.29 1017.18 1017.11 1017.08 1017.10 1017.16 1017.26 1017.39 1017.56 1017.74 1017.93 1018.12 1018.31 1018.48 1018.65 1018.79 1018.93
1019.94 1020.09 1020.17 1020.19 1020.16 1020.08 1019.97 1019.82 1019.67 1019.50 1019.33 1019.16 1018.99 1018.84 1018.69 1018.55 1018.41 1018.28 1018.15 1018.02 1017.88 1017.75 1017.61 1017.47 1017.33 1017.21 1017.09 1016.99 1016.91 1016.86 1016.84 1016.86 1016.90 1016.98 1017.09 1017.23 1017.39 1017.57 1017.76 1017.96 1018.16 1018.37 1018.58 1018.78
Thickness
5676 5675 5674 5672 5671 5670 5669 5673 5671 5677 5678 5683 5684 5682 5682 5681 5680 5678 5677 5676 5675 5673 5673 5671 5669 5668 5666 5664 5662 5659 5656 5653 5650 5647 5644 5640 5637 5633 5630 5626 5624 5621 5620 5618
5664 5666 5666 5665 5669 5669 5667 5669 5670 5671 5672 5682 5682 5680 5676 5676 5674 5672 5671 5671 5670 5669 5667 5666 5665 5663 5661 5658 5657 5654 5651 5648 5645 5641 5637 5634 5631 5627 5623 5620 5617 5614 5613 5612
5657 5659 5657 5658 5669 5668 5668 5670 5670 5666 5672 5675 5672 5670 5670 5670 5668 5668 5667 5666 5665 5664 5663 5661 5661 5659 5655 5653 5650 5648 5646 5642 5638 5635 5631 5628 5624 5620 5617 5614 5611 5608 5607 5606
5649 5647 5640 5667 5674 5671 5667 5668 5671 5670 5669 5668 5668 5668 5667 5667 5665 5663 5662 5660 5659 5658 5656 5655 5654 5652 5650 5646 5644 5642 5639 5636 5632 5628 5625 5621 5618 5615 5612 5609 5606 5603 5602 5600
5641 5639 5648 5661 5663 5661 5658 5661 5669 5666 5664 5662 5661 5659 5661 5662 5661 5658 5657 5655 5654 5653 5651 5649 5647 5645 5643 5640 5638 5636 5633 5630 5626 5623 5619 5615 5612 5609 5606 5603 5600 5598 5596 5594
5635 5630 5635 5655 5661 5661 5655 5652 5664 5662 5658 5657 5654 5652 5656 5656 5654 5651 5649 5648 5647 5646 5645 5642 5640 5638 5636 5634 5632 5629 5626 5623 5620 5617 5613 5610 5607 5604 5600 5597 5594 5592 5590 5589
5630 5629 5642 5652 5652 5649 5640 5650 5656 5656 5654 5652 5651 5652 5651 5648 5645 5643 5641 5640 5639 5638 5636 5634 5632 5630 5629 5628 5626 5623 5619 5616 5613 5610 5606 5603 5600 5596 5593 5591 5588 5586 5584 5583
5625 5623 5633 5644 5642 5641 5647 5652 5650 5648 5648 5645 5645 5643 5641 5638 5636 5634 5633 5631 5630 5629 5628 5626 5624 5623 5622 5620 5618 5614 5611 5608 5605 5602 5599 5596 5592 5589 5586 5583 5581 5580 5578 5577
5628 5632 5637 5638 5639 5641 5642 5641 5641 5640 5639 5637 5634 5633 5632 5630 5628 5627 5625 5624 5622 5621 5619 5618 5616 5615 5614 5612 5608 5605 5602 5600 5597 5595 5591 5588 5585 5582 5579 5577 5575 5573 5571 5570
5621 5627 5627 5628 5630 5631 5631 5631 5631 5631 5629 5628 5627 5625 5623 5622 5621 5620 5618 5616 5615 5613 5612 5610 5608 5606 5605 5603 5600 5597 5595 5592 5589 5587 5584 5580 5577 5575 5572 5570 5568 5566 5564 5563
5612 5617 5619 5621 5622 5622 5621 5622 5621 5621 5621 5620 5619 5618 5616 5615 5614 5613 5610 5608 5607 5605 5603 5601 5598 5596 5596 5593 5592 5590 5587 5584 5581 5578 5576 5573 5570 5566 5565 5563 5560 5558 5558 5556
5608 5613 5612 5614 5615 5614 5613 5613 5613 5613 5613 5613 5611 5610 5609 5608 5607 5604 5602 5601 5599 5596 5594 5592 5590 5588 5586 5584 5583 5581 5579 5576 5573 5571 5568 5565 5562 5559 5553 5552 5549 5547 5546 5545
5605 5605 5605 5606 5606 5606 5605 5606 5606 5606 5605 5605 5604 5602 5601 5600 5598 5596 5594 5592 5590 5588 5585 5584 5581 5579 5577 5575 5574 5572 5571 5568 5565 5563 5561 5558 5556 5554 5550 5545 5540 5538 5537 5536
5596 5595 5595 5596 5597 5597 5598 5598 5598 5598 5597 5596 5595 5594 5593 5591 5590 5587 5586 5583 5581 5579 5576 5575 5573 5570 5568 5566 5565 5563 5561 5558 5557 5555 5553 5551 5549 5546 5544 5542 5539 5535 5530 5527
5587 5588 5589 5589 5589 5589 5590 5590 5590 5590 5589 5588 5587 5585 5584 5583 5581 5580 5577 5574 5572 5569 5567 5565 5564 5562 5559 5557 5556 5554 5552 5550 5548 5547 5545 5543 5541 5538 5536 5533 5531 5528 5525 5521
5579 5579 5580 5580 5580 5581 5581 5582 5582 5582 5581 5580 5579 5577 5576 5574 5573 5571 5568 5566 5564 5561 5559 5557 5555 5553 5550 5549 5547 5545 5543 5539 5538 5538 5537 5535 5532 5530 5528 5525 5523 5521 5518 5514
5570 5571 5571 5572 5573 5574 5574 5575 5575 5574 5573 5572 5571 5569 5568 5566 5564 5562 5560 5557 5555 5553 5551 5549 5546 5544 5542 5540 5539 5537 5535 5532 5528 5529 5528 5527 5524 5522 5520 5517 5515 5513 5509 5505
5566 5567 5566 5566 5566 5567 5567 5566 5566 5566 5565 5564 5562 5561 5559 5558 5557 5554 5552 5549 5547 5545 5543 5540 5538 5536 5534 5532 5530 5528 5526 5524 5522 5521 5519 5518 5516 5514 5512 5509 5507 5504 5501 5497
5558 5558 5558 5558 5559 5559 5560 5559 5558 5558 5558 5556 5554 5553 5552 5551 5549 5547 5544 5542 5539 5537 5534 5532 5528 5528 5526 5523 5521 5519 5518 5516 5514 5512 5510 5507 5506 5504 5503 5501 5499 5496 5494 5491
5551 5550 5551 5551 5550 5550 5550 5551 5550 5550 5549 5548 5546 5545 5544 5542 5540 5538 5536 5534 5531 5529 5526 5524 5521 5520 5518 5515 5511 5511 5509 5507 5506 5503 5501 5499 5498 5496 5494 5492 5490 5488 5486 5484
5544 5544 5543 5543 5542 5541 5541 5541 5541 5540 5540 5538 5538 5537 5535 5534 5531 5530 5528 5526 5523 5519 5517 5514 5514 5512 5509 5506 5502 5502 5501 5499 5497 5495 5493 5491 5490 5488 5486 5485 5482 5480 5478 5476
5537 5536 5535 5535 5534 5534 5533 5533 5532 5531 5530 5529 5529 5528 5526 5524 5522 5521 5519 5517 5514 5509 5508 5507 5506 5503 5501 5497 5496 5494 5492 5490 5488 5487 5485 5483 5481 5479 5478 5476 5474 5472 5470 5468
5528 5528 5527 5527 5526 5526 5524 5523 5522 5521 5520 5519 5519 5518 5516 5515 5514 5512 5511 5508 5505 5502 5500 5499 5497 5493 5491 5490 5488 5486 5484 5482 5480 5478 5476 5474 5472 5470 5468 5466 5464 5462 5461 5459
5519 5518 5517 5517 5516 5516 5515 5514 5512 5511 5510 5509 5508 5507 5506 5505 5504 5503 5501 5498 5496 5493 5492 5490 5486 5484 5482 5482 5480 5478 5476 5474 5471 5469 5467 5465 5463 5461 5459 5457 5455 5453 5452 5450
5509 5509 5508 5507 5507 5507 5506 5505 5503 5502 5501 5500 5499 5497 5496 5495 5494 5493 5491 5489 5486 5484 5483 5481 5478 5475 5474 5473 5471 5469 5467 5465 5463 5460 5458 5456 5454 5452 5450 5448 5446 5445 5443 5442
5500 5500 5499 5499 5499 5497 5497 5496 5495 5494 5493 5491 5490 5489 5487 5486 5484 5483 5482 5480 5478 5475 5473 5472 5469 5467 5466 5464 5462 5460 5458 5456 5453 5451 5449 5447 5445 5443 5441 5439 5437 5436 5435 5433
5491 5491 5490 5489 5489 5488 5488 5487 5487 5487 5486 5485 5482 5480 5479 5477 5476 5474 5472 5471 5469 5466 5464 5463 5461 5458 5456 5454 5452 5451 5449 5447 5445 5443 5441 5438 5436 5434 5433 5431 5429 5428 5426 5424